Flag for Russia Weather past 2 weeks in Pyatigorsk, Russia

Now
88 °F

Partly sunny.


Feels Like: 86 °F
Forecast: 63 / 87 °F
Wind: 3 mph from West

Location: Mineral'Nye Vody

Current Time: Aug 23, 2014 at 6:28:34 PM

Latest Report: Aug 23, 2014 at 6:00 PM


Visibility: N/A

Pressure: 29.95 "Hg

Humidity: 31%

Dew point: 54 °F

Location of PyatigorskLocation

Historic Weather in Pyatigorsk — Graph

°F

Pyatigorsk temperature yesterday

Maximum temperature yesterday: 93 °F (at 3:00 PM)
Minimum temperature yesterday: 64 °F (at 4:30 AM)
Average temperature yesterday: 78 °F

Past Weeks' High & Low Weather Summary

 TemperatureHumidityPressure
High100 °F (Aug 16, 4:00 PM)100% (Aug 11, 6:00 AM)30.07 "Hg (Aug 11, 6:00 AM)
Low59 °F (Aug 12, 6:30 AM)19% (Aug 15, 4:30 PM)29.59 "Hg (Aug 18, 12:00 PM)
Average78 °F57%29.89 "Hg
* Reported Aug 8 5:00 PM — Aug 23 5:30 PM, Pyatigorsk, Weather by CustomWeather, © 2014

Note: Actual official high and low records may vary slightly from our data, if they occured in-between our weather recording intervals... More about our weather records

Advertising

Pyatigorsk weather history for previous 24 hours

 ConditionsComfort  
Time TempWeatherWind HumidityBarometerVisibility
5:30 PM
Aug 23
90 °FPartly sunny.3 mph27%29.95 "HgN/A
5:00 PM90 °FPartly sunny.6 mph29%29.95 "HgN/A
4:30 PM90 °FPartly sunny.6 mph27%29.95 "HgN/A
4:00 PM88 °FPartly sunny.6 mph31%29.95 "HgN/A
3:30 PM88 °FPartly sunny.3 mph29%29.95 "HgN/A
3:00 PM88 °FScattered clouds.6 mph31%29.95 "HgN/A
2:30 PM88 °FScattered clouds.6 mph31%29.95 "HgN/A
2:00 PM90 °FPassing clouds.6 mph27%29.95 "HgN/A
1:30 PM88 °FPassing clouds.6 mph29%29.95 "HgN/A
1:00 PM86 °FPassing clouds.3 mph33%29.98 "HgN/A
12:30 PM86 °FPassing clouds.6 mph31%29.98 "HgN/A
12:00 PM84 °FPassing clouds.6 mph37%29.98 "HgN/A
11:30 AM82 °FPassing clouds.6 mph37%30.01 "HgN/A
11:00 AM81 °FPassing clouds.8 mph42%30.01 "HgN/A
10:30 AM79 °FPassing clouds.8 mph51%30.01 "HgN/A
10:00 AM79 °FPassing clouds.8 mph51%30.01 "HgN/A
9:30 AM75 °FSunny.10 mph61%30.01 "HgN/A
9:00 AM73 °FSunny.13 mph65%30.01 "HgN/A
8:30 AM72 °FSunny.13 mph69%30.01 "HgN/A
8:00 AM70 °FSunny.6 mph73%30.01 "HgN/A
7:30 AM68 °FPassing clouds.8 mph78%30.01 "HgN/A
7:00 AM66 °FPassing clouds.8 mph83%30.01 "HgN/A
6:30 AM66 °FPassing clouds.8 mph83%30.01 "HgN/A
6:00 AM66 °FPassing clouds.10 mph83%29.98 "HgN/A
5:30 AM68 °FPassing clouds.8 mph78%29.98 "HgN/A
5:00 AM68 °FPassing clouds.8 mph83%29.98 "HgN/A
4:30 AM68 °FPassing clouds.10 mph83%29.98 "HgN/A
4:00 AM68 °FClear.8 mph83%29.98 "HgN/A
3:30 AM70 °FClear.8 mph78%29.95 "HgN/A
3:00 AM70 °FClear.8 mph83%29.95 "HgN/A
2:30 AM68 °FPassing clouds.8 mph83%29.95 "HgN/A
2:00 AM70 °FPassing clouds.8 mph83%29.95 "HgN/A
1:30 AM70 °FPassing clouds.10 mph78%29.95 "HgN/A
12:30 AM68 °FPassing clouds.8 mph88%29.95 "HgN/A
12:00 AM72 °FPassing clouds.10 mph73%29.95 "HgN/A
11:30 PM
Aug 22
72 °FPartly cloudy.8 mph73%29.95 "HgN/A
11:00 PM72 °FPartly cloudy.8 mph78%29.98 "HgN/A
10:30 PM73 °FPartly cloudy.6 mph69%29.98 "HgN/A
10:00 PM73 °FThundershowers. Partly cloudy.3 mph74%29.95 "HgN/A
9:30 PM75 °FThunderstorms. Passing clouds.3 mph69%29.95 "HgN/A
9:00 PM73 °FThunderstorms. Partly sunny.3 mph69%29.95 "HgN/A
8:30 PM75 °FThunderstorms. Partly sunny.8 mph65%29.98 "HgN/A
8:00 PM75 °FThunderstorms. Partly sunny.3 mph78%29.95 "HgN/A
7:30 PM81 °FThunderstorms. Partly sunny.10 mph58%29.92 "HgN/A
7:00 PM88 °FThundershowers. Partly sunny.6 mph35%29.92 "HgN/A
6:30 PM90 °FBroken clouds.8 mph33%29.92 "HgN/A
6:00 PM90 °FPartly sunny.3 mph33%29.89 "HgN/A
Weather by CustomWeather, © 2014

See weather overviewHow to use our weather pages